This is the latest recevied weather packets stored in our database for station/object DH9SB-6. If no packets are shown the sender has not sent any weather packets the latest 10 day(s).
| Time | Temp. | Humidity | Pressure | Rain* | Wind** | Luminosity | Snow |
|---|---|---|---|---|---|---|---|
| 1777740203 | 26.11° C | 22% | - | 0 mm | - | - | - |
| 1777739580 | 26.11° C | 22% | - | 0 mm | - | - | - |
| 1777738956 | 25.56° C | 22% | - | 0 mm | - | - | - |
| 1777738379 | 25.56° C | 21% | - | 0 mm | - | - | - |
| 1777737755 | 26.11° C | 22% | - | 0 mm | - | - | - |
| 1777737180 | 26.67° C | 21% | - | 0 mm | - | - | - |
| 1777736555 | 27.22° C | 21% | - | 0 mm | - | - | - |
| 1777735980 | 28.33° C | 20% | - | 0 mm | - | - | - |
| 1777735356 | 28.89° C | 20% | - | 0 mm | - | - | - |
| 1777734779 | 29.44° C | 20% | - | 0 mm | - | - | - |
| 1777734156 | 29.44° C | 17% | - | 0 mm | - | - | - |
| 1777733579 | 29.44° C | 19% | - | 0 mm | - | - | - |
| 1777732956 | 28.89° C | 20% | - | 0 mm | - | - | - |
| 1777732380 | 29.44° C | 17% | - | 0 mm | - | - | - |
| 1777731756 | 28.89° C | 19% | - | 0 mm | - | - | - |
| 1777731180 | 28.89° C | 13% | - | 0 mm | - | - | - |
| 1777730556 | 29.44° C | 16% | - | 0 mm | - | - | - |
| 1777729979 | 28.89° C | 20% | - | 0 mm | - | - | - |
| 1777729356 | 28.33° C | 20% | - | 0 mm | - | - | - |
| 1777728781 | 28.33° C | 20% | - | 0 mm | - | - | - |
| 1777728156 | 27.78° C | 20% | - | 0 mm | - | - | - |
| 1777727579 | 27.22° C | 22% | - | 0 mm | - | - | - |
| 1777726957 | 26.11° C | 23% | - | 0 mm | - | - | - |
| 1777726379 | 26.11° C | 25% | - | 0 mm | - | - | - |
| 1777725756 | 26.11° C | 23% | - | 0 mm | - | - | - |
* Rain latest hour (hover to see other rain measurements)
** Current wind speed in m/s (hover to see current wind gust speed)